When you browse on this site, cookies collect data to enhance your experience and personalize the content and advertising you see.
Visit our Privacy Policy to learn more. By continuing to use the site, you agree to this use of cookies and data.
  • In Czech Republic
  • List of Countries
  • For 7 days
  • Water Temperature
  • Weather Map
  • Weather Widgets
  • user-avatar
    Login

    Hourly Weather Batina

    Today, 7 December, Saturday

    Time Temperature Precipitation Wind Pressure Humidity
    00:00 +6°C° 0 mm 0 mps 672 mmHg 56%
    01:00 +6°C° 0 mm 0 mps 672 mmHg 55%
    02:00 +7°C° 0 mm 1 mps 672 mmHg 54%
    03:00 +7°C° 0 mm 1 mps 671 mmHg 53%
    04:00 +7°C° 0 mm 1 mps 671 mmHg 53%
    05:00 +7°C° 0 mm 1 mps 671 mmHg 54%
    06:00 +6°C° 0 mm 0 mps 671 mmHg 54%
    07:00 +9°C° 0 mm 1 mps 672 mmHg 48%
    08:00 +11°C° 0 mm 1 mps 673 mmHg 42%
    09:00 +14°C° 0 mm 1 mps 674 mmHg 35%
    10:00 +15°C° 0 mm 1 mps 674 mmHg 34%
    11:00 +16°C° 0 mm 1 mps 674 mmHg 32%
    12:00 +18°C° 0 mm 1 mps 674 mmHg 30%
    13:00 +18°C° 0 mm 1 mps 673 mmHg 32%
    14:00 +16°C° 0 mm 1 mps 673 mmHg 33%
    15:00 +16°C° 0 mm 1 mps 673 mmHg 35%
    16:00 +15°C° 0 mm 1 mps 672 mmHg 42%
    17:00 +13°C° 0 mm 1 mps 672 mmHg 49%
    18:00 +10°C° 0 mm 0 mps 672 mmHg 55%
    19:00 +10°C° 0 mm 0 mps 672 mmHg 57%
    20:00 +9°C° 0 mm 0 mps 672 mmHg 58%
    21:00 +9°C° 0 mm 0 mps 672 mmHg 59%
    22:00 +9°C° 0 mm 0 mps 672 mmHg 60%
    23:00 +10°C° 0 mm 1 mps 672 mmHg 61%

    Tomorrow, 8 December, Sunday

    Time Temperature Precipitation Wind Pressure Humidity
    00:00 +10°C° 0 mm 1 mps 672 mmHg 62%
    01:00 +10°C° 0 mm 1 mps 672 mmHg 65%
    02:00 +8°C° 0 mm 0 mps 672 mmHg 69%
    03:00 +8°C° 0 mm 0 mps 671 mmHg 73%
    04:00 +7°C° 0.1 mm 0 mps 671 mmHg 74%
    05:00 +8°C° 0.1 mm 1 mps 671 mmHg 75%
    06:00 +8°C° 0.1 mm 1 mps 671 mmHg 76%
    07:00 +9°C° 0 mm 1 mps 672 mmHg 71%
    08:00 +9°C° 0 mm 2 mps 673 mmHg 67%
    09:00 +10°C° 0 mm 2 mps 673 mmHg 62%
    10:00 +12°C° 0.1 mm 2 mps 673 mmHg 62%
    11:00 +11°C° 0.1 mm 3 mps 673 mmHg 61%
    12:00 +12°C° 0.1 mm 3 mps 673 mmHg 61%
    13:00 +12°C° 0.1 mm 3 mps 673 mmHg 61%
    14:00 +12°C° 0.1 mm 3 mps 673 mmHg 61%
    15:00 +13°C° 0.1 mm 2 mps 673 mmHg 61%
    16:00 +12°C° 0 mm 2 mps 673 mmHg 67%
    17:00 +10°C° 0 mm 2 mps 673 mmHg 72%
    18:00 +9°C° 0 mm 2 mps 673 mmHg 77%
    19:00 +9°C° 0 mm 2 mps 673 mmHg 80%
    20:00 +8°C° 0 mm 2 mps 673 mmHg 82%
    21:00 +8°C° 0 mm 2 mps 673 mmHg 84%
    22:00 +7°C° 0 mm 2 mps 673 mmHg 88%
    23:00 +7°C° 0 mm 2 mps 672 mmHg 91%

    Day after tomorrow, 9 December, Monday

    Time Temperature Precipitation Wind Pressure Humidity
    00:00 +6°C° 0 mm 2 mps 672 mmHg 94%
    01:00 +6°C° 0 mm 2 mps 672 mmHg 94%
    02:00 +6°C° 0 mm 2 mps 672 mmHg 94%
    03:00 +5°C° 0 mm 2 mps 672 mmHg 94%
    04:00 +5°C° 0 mm 2 mps 672 mmHg 93%
    05:00 +5°C° 0 mm 2 mps 672 mmHg 92%
    06:00 +6°C° 0 mm 1 mps 672 mmHg 91%
    07:00 +6°C° 0 mm 2 mps 672 mmHg 80%
    08:00 +7°C° 0 mm 2 mps 673 mmHg 70%
    09:00 +9°C° 0 mm 2 mps 674 mmHg 59%
    10:00 +10°C° 0 mm 2 mps 674 mmHg 56%
    11:00 +11°C° 0 mm 3 mps 674 mmHg 52%
    12:00 +11°C° 0 mm 3 mps 674 mmHg 49%
    13:00 +11°C° 0 mm 4 mps 673 mmHg 51%
    14:00 +11°C° 0 mm 4 mps 673 mmHg 53%
    15:00 +10°C° 0 mm 5 mps 673 mmHg 55%
    16:00 +10°C° 0 mm 4 mps 673 mmHg 63%
    17:00 +9°C° 0 mm 3 mps 673 mmHg 71%
    18:00 +8°C° 0 mm 3 mps 672 mmHg 79%
    19:00 +7°C° 0 mm 3 mps 673 mmHg 79%
    20:00 +5°C° 0 mm 3 mps 673 mmHg 79%
    21:00 +5°C° 0 mm 4 mps 673 mmHg 79%
    22:00 +4°C° 0 mm 4 mps 673 mmHg 79%
    23:00 +4°C° 0 mm 4 mps 673 mmHg 80%

    10 December, Tuesday

    Time Temperature Precipitation Wind Pressure Humidity
    00:00 +4°C° 0 mm 4 mps 673 mmHg 80%
    01:00 +4°C° 0 mm 4 mps 672 mmHg 82%
    02:00 +4°C° 0 mm 3 mps 672 mmHg 83%
    03:00 +3°C° 0 mm 3 mps 672 mmHg 85%
    04:00 +3°C° 0 mm 3 mps 672 mmHg 86%
    05:00 +3°C° 0 mm 3 mps 672 mmHg 87%
    06:00 +2°C° 0 mm 3 mps 672 mmHg 88%
    07:00 +4°C° 0 mm 3 mps 672 mmHg 80%
    08:00 +5°C° 0 mm 4 mps 673 mmHg 72%
    09:00 +6°C° 0 mm 5 mps 673 mmHg 63%
    10:00 +7°C° 0 mm 5 mps 673 mmHg 62%
    11:00 +7°C° 0 mm 6 mps 673 mmHg 60%
    12:00 +8°C° 0 mm 6 mps 673 mmHg 59%
    13:00 +8°C° 0 mm 6 mps 672 mmHg 61%
    14:00 +7°C° 0 mm 6 mps 672 mmHg 63%
    15:00 +6°C° 0 mm 7 mps 672 mmHg 66%
    16:00 +5°C° 0 mm 6 mps 672 mmHg 70%
    17:00 +6°C° 0 mm 5 mps 672 mmHg 74%
    18:00 +5°C° 0 mm 5 mps 672 mmHg 78%
    19:00 +4°C° 0 mm 4 mps 672 mmHg 81%
    20:00 +4°C° 0 mm 3 mps 672 mmHg 84%
    21:00 +3°C° 0 mm 3 mps 672 mmHg 88%
    22:00 +3°C° 0 mm 3 mps 672 mmHg 88%
    23:00 +3°C° 0 mm 3 mps 672 mmHg 88%

    11 December, Wednesday

    Time Temperature Precipitation Wind Pressure Humidity
    00:00 +3°C° 0 mm 3 mps 672 mmHg 88%
    01:00 +2°C° 0 mm 3 mps 672 mmHg 88%
    02:00 +3°C° 0 mm 2 mps 671 mmHg 87%
    03:00 +2°C° 0 mm 2 mps 671 mmHg 87%
    04:00 +2°C° 0 mm 2 mps 671 mmHg 83%
    05:00 +2°C° 0 mm 2 mps 671 mmHg 80%
    06:00 +3°C° 0 mm 1 mps 671 mmHg 76%
    07:00 +5°C° 0 mm 1 mps 672 mmHg 63%
    08:00 +7°C° 0 mm 1 mps 672 mmHg 50%
    09:00 +9°C° 0 mm 1 mps 673 mmHg 37%
    10:00 +10°C° 0 mm 1 mps 673 mmHg 34%
    11:00 +12°C° 0 mm 1 mps 673 mmHg 30%
    12:00 +13°C° 0 mm 2 mps 672 mmHg 26%
    13:00 +13°C° 0 mm 2 mps 672 mmHg 26%
    14:00 +13°C° 0 mm 2 mps 672 mmHg 26%
    15:00 +13°C° 0 mm 2 mps 672 mmHg 27%
    16:00 +12°C° 0 mm 1 mps 671 mmHg 34%
    17:00 +10°C° 0 mm 1 mps 671 mmHg 42%
    18:00 +7°C° 0 mm 0 mps 670 mmHg 49%
    19:00 +8°C° 0 mm 1 mps 670 mmHg 48%
    20:00 +8°C° 0 mm 1 mps 670 mmHg 47%
    21:00 +7°C° 0 mm 1 mps 671 mmHg 46%
    22:00 +7°C° 0 mm 1 mps 670 mmHg 46%
    23:00 +7°C° 0 mm 1 mps 670 mmHg 47%

    12 December, Thursday

    Time Temperature Precipitation Wind Pressure Humidity
    00:00 +7°C° 0 mm 1 mps 670 mmHg 47%
    01:00 +6°C° 0 mm 1 mps 670 mmHg 49%
    02:00 +6°C° 0 mm 1 mps 670 mmHg 51%
    03:00 +6°C° 0 mm 1 mps 670 mmHg 53%
    04:00 +6°C° 0 mm 1 mps 670 mmHg 57%
    05:00 +5°C° 0 mm 1 mps 670 mmHg 61%
    06:00 +4°C° 0 mm 2 mps 670 mmHg 66%
    07:00 +5°C° 0 mm 2 mps 671 mmHg 67%
    08:00 +6°C° 0 mm 2 mps 672 mmHg 68%
    09:00 +7°C° 0 mm 2 mps 673 mmHg 69%
    10:00 +8°C° 0 mm 2 mps 673 mmHg 69%
    11:00 +8°C° 0 mm 2 mps 673 mmHg 69%
    12:00 +8°C° 0 mm 2 mps 673 mmHg 68%
    13:00 +10°C° 0 mm 1 mps 672 mmHg 65%
    14:00 +10°C° 0 mm 1 mps 672 mmHg 62%
    15:00 +10°C° 0 mm 1 mps 672 mmHg 59%
    16:00 +9°C° 0 mm 1 mps 672 mmHg 64%
    17:00 +8°C° 0 mm 1 mps 672 mmHg 70%
    18:00 +7°C° 0 mm 1 mps 672 mmHg 75%
    19:00 +7°C° 0 mm 1 mps 672 mmHg 77%
    20:00 +5°C° 0 mm 2 mps 672 mmHg 78%
    21:00 +5°C° 0 mm 2 mps 672 mmHg 79%
    22:00 +5°C° 0 mm 2 mps 672 mmHg 82%
    23:00 +5°C° 0 mm 2 mps 672 mmHg 84%
    Show more